[[{"header":{"parameterUnit":"m.s-1","parameterCategory":2,"la1":30.2991,"la2":30.254,"lo1":-89.0895,"lo2":-89.0444,"dy":0.0017,"dx":0.0017,"nx":28,"ny":28,"refTime":"2024-08-06T21:00:00:Z","depth":"0","parameterNumber":2,"parameterNumberName":"U-component_of_CURRENTS"},"data":[0,0,0,0,0,0,0,0,0,0,0,0,0,0,0,0,0,0,0,0,0,0,0,0,0,0,0,0,0,0,0,0,0,0,0,0,0,0,0,0,0,0,0,0,0,0,0,0,0,0,0,0,0,0,0,0,0,0,0.3497,0.3498,0,0.3541,0.354,0.354,0.3505,0.3504,0.3503,0.3502,0.3394,0.3392,0.339,0,0,0,0,0,0,0,0,0,0,0,0,0,0.3506,0.3504,0.3497,0.3498,0.35,0.3541,0.354,0.354,0.3505,0.3504,0.3503,0.3502,0.3395,0.3393,0.339,0,0,0,0,0,0,0,0,0,0,0,0,0,0.3514,0.3504,0.3497,0.3492,0.3492,0.3541,0.354,0.354,0.3505,0.3504,0.3503,0.3502,0.3396,0.3393,0.339,0.3396,0,0,0.338,0.3379,0,0,0,0,0,0,0,0,0.3513,0.3512,0.3491,0.3492,0.3493,0.3522,0.3504,0.3487,0.3506,0.3493,0.3502,0.3501,0.3428,0.3423,0.3426,0.3391,0.3387,0.338,0.3378,0.3377,0.3376,0,0,0,0,0,0,0,0.3512,0.3511,0.3507,0.3493,0.3494,0.353,0.3528,0.3502,0.3459,0.3494,0.3493,0.351,0.3427,0.3429,0.3423,0.3385,0.338,0.3377,0.3375,0.3374,0.3411,0.3414,0,0,0,0,0,0,0.3516,0.351,0.3506,0.3509,0.3508,0.3531,0.3528,0.3508,0.3463,0.3458,0.3511,0.3508,0.3435,0.3427,0.3419,0.3525,0.3377,0.3374,0.3372,0.3408,0.3412,0.3415,0,0,0,0,0,0,0.3515,0.3514,0.3504,0.3519,0.3521,0.3532,0.351,0.351,0.3521,0.3479,0.3469,0.3524,0.3434,0.3423,0.3431,0.3516,0.3372,0.337,0.3405,0.3409,0.3413,0.3673,0,0,0,0,0,0,0.3514,0.3512,0.3502,0.3517,0.352,0.3557,0.3512,0.3512,0.3536,0.3533,0.3487,0.3475,0.3432,0.3437,0.3428,0.351,0.3367,0.3401,0.3407,0.3412,0.366,0.3685,0.3706,0,0,0,0,0,0.3514,0.3519,0.35,0.3501,0.3503,0.356,0.3566,0.3565,0.3539,0.3564,0.3539,0.3477,0.3464,0.3437,0.3426,0.3509,0.3399,0.3405,0.3412,0.365,0.368,0.3706,0,0,0,0,0,0,0.3539,0.3517,0.3497,0.3498,0.3535,0.3557,0.3583,0.3579,0.3581,0.3572,0.3512,0.3501,0.3543,0.348,0.3451,0.3531,0.3421,0.3426,0.3606,0.3634,0.3656,0.3627,0.3365,0,0,0,0,0,0.3535,0.3526,0.3531,0.3548,0.3555,0.3567,0.3589,0.3597,0.3604,0.3603,0.3586,0.3559,0.3562,0.356,0.3542,0.3582,0.3506,0.3625,0.3648,0.3668,0.3636,0.3619,0.3638,0.3436,0.3436,0.3436,0,0,0.3571,0.3548,0.3555,0.3553,0.3569,0.3624,0.3576,0.3627,0.3703,0.359,0.3674,0.3637,0.3587,0.3649,0.3661,0.3608,0.3697,0.3677,0.3695,0.365,0.3628,0.3647,0.3665,0.344,0.3439,0.3439,0,0,0.364,0.3595,0.3611,0.3635,0.3661,0.3682,0.3701,0.3736,0.3772,0.3844,0.3792,0.3802,0.3808,0.3804,0.3796,0.3924,0.3818,0.3925,0.4024,0.4013,0.4029,0.4042,0.402,0.4029,0.394,0.394,0.3941,0,0.3673,0.3684,0.3643,0.367,0.3713,0.3712,0.378,0.3835,0.3887,0.39,0.39,0.3893,0.3887,0.3921,0.3997,0.398,0.3936,0.3937,0.4045,0.4055,0.4064,0.4037,0.4044,0.3953,0.3952,0.3951,0.3949,0,0.3766,0.3775,0.38,0.3822,0.3864,0.3933,0.3989,0.4049,0.4084,0.4098,0.4142,0.4135,0.4094,0.4148,0.4129,0.4191,0.4131,0.4081,0.398,0.41,0.4065,0.4067,0.3973,0.3968,0.3964,0.3961,0,0,0.3815,0.3853,0.3858,0.3876,0.3947,0.3982,0.4119,0.4193,0.4207,0.4289,0.43,0.4388,0.4304,0.4287,0.426,0.4295,0.4392,0.4237,0.423,0.4224,0.4355,0.4176,0.4159,0.4364,0.4364,0.4365,0.4324,0,0.3898,0.3969,0.3982,0.4085,0.4123,0.4163,0.4259,0.4319,0.4352,0.4363,0.4374,0.4359,0.4382,0.4347,0.4397,0.4365,0.4399,0.4405,0.4226,0.422,0.4054,0.4156,0.392,0.3849,0.4324,0.4325,0.4325,0,0.3971,0.3997,0.4098,0.4149,0.4165,0.4225,0.4291,0.4375,0.4394,0.4409,0.4391,0.4343,0.4395,0.4385,0.4413,0.4412,0.4401,0.4398,0.4394,0.4116,0.4041,0.3793,0.3833,0.3762,0.4326,0.4326,0.4326,0,0.3984,0.4072,0.4144,0.4174,0.4242,0.4278,0.432,0.4353,0.4371,0.4383,0.4347,0.4367,0.4345,0.4369,0.4383,0.4394,0.4387,0.438,0.4205,0.4192,0.389,0.3847,0.3829,0.4384,0.4384,0.4384,0.4384,0,0.4046,0.4086,0.4134,0.4156,0.4187,0.4246,0.4249,0.4297,0.4299,0.4268,0.4312,0.4279,0.4342,0.4334,0.4364,0.4278,0.4362,0.4212,0.4165,0.3977,0.3945,0.3779,0.3764,0.4382,0.4383,0.4383,0.4383,0,0.4027,0.4086,0.4119,0.4173,0.4176,0.4177,0.4181,0.4164,0.4203,0.4165,0.4165,0.4208,0.4187,0.4213,0.4233,0.4206,0.403,0.4119,0.3891,0.3816,0.3543,0.3549,0.3268,0.3194,0.39,0.3895,0.3891,0,0.4028,0.4048,0.4071,0.405,0.4056,0.4058,0.404,0.4098,0.4078,0.4111,0.4079,0.4057,0.3991,0.3939,0.3884,0.3826,0.3806,0.3593,0.3565,0.3484,0.3459,0.3378,0.3334,0.3302,0.3294,0.3287,0.3281,0,0.3985,0.3982,0.3992,0.3945,0.3918,0.3883,0.3873,0.3845,0.3909,0.3877,0.3824,0.3771,0.3691,0.3492,0.3422,0.3394,0.338,0.3442,0.3417,0.3022,0.2867,0.2786,0.3397,0.3219,0.3225,0.323,0.3233,0.3236,0.3911,0.3886,0.3873,0.3805,0.3773,0.3684,0.3585,0.3588,0.3518,0.3414,0.3538,0.3369,0.3238,0.3056,0.3019,0.2794,0.2887,0.2697,0.2727,0.2666,0.2525,0.2987,0.2715,0.2718,0.2721,0.2723,0.2725,0,0.3774,0.3761,0.3721,0.3619,0.3492,0.352,0.3439,0.3302,0.3143,0.3126,0.3029,0.2796,0.2577,0.2493,0.2257,0.2129,0.2102,0.2085,0.1966,0.1979,0.2425,0.2332,0.1889,0.1889,0.1889,0.1889,0.1889,0.189,0.3696,0.3605,0.3573,0.3334,0.3247,0.3009,0.2904,0.2764,0.2701,0.2431,0.2255,0.2215,0.2137,0.1925,0.1725,0.1695,0.1645,0.1456,0.1604,0.1978,0.204,0.21,0.2012,0.1509,0.1509,0.1035,0.1031,0.1029]},{"header":{"parameterUnit":"m.s-1","parameterCategory":2,"la1":30.2991,"la2":30.254,"lo1":-89.0895,"lo2":-89.0444,"dy":0.0017,"dx":0.0017,"nx":28,"ny":28,"refTime":"2024-08-06T21:00:00:Z","depth":"0","parameterNumber":3,"parameterNumberName":"V-component_of_CURRENTS"},"data":[0,0,0,0,0,0,0,0,0,0,0,0,0,0,0,0,0,0,0,0,0,0,0,0,0,0,0,0,0,0,0,0,0,0,0,0,0,0,0,0,0,0,0,0,0,0,0,0,0,0,0,0,0,0,0,0,0,0,-0.0183,-0.0183,0,-0.0178,-0.0178,-0.0178,-0.017,-0.017,-0.017,-0.0169,-0.0111,-0.011,-0.0109,0,0,0,0,0,0,0,0,0,0,0,0,0,-0.0234,-0.0233,-0.0183,-0.0183,-0.0183,-0.0178,-0.0178,-0.0178,-0.017,-0.017,-0.0169,-0.0169,-0.0112,-0.011,-0.0109,0,0,0,0,0,0,0,0,0,0,0,0,0,-0.0219,-0.0232,-0.0183,-0.0177,-0.0177,-0.0178,-0.0178,-0.0178,-0.017,-0.017,-0.0169,-0.0169,-0.0112,-0.011,-0.0108,-0.0104,0,0,-0.0102,-0.0102,0,0,0,0,0,0,0,0,-0.022,-0.0218,-0.0178,-0.0178,-0.0177,-0.0174,-0.0175,-0.015,-0.017,-0.0174,-0.0169,-0.0169,-0.0127,-0.0124,-0.0126,-0.0101,-0.0098,-0.0102,-0.0101,-0.01,-0.01,0,0,0,0,0,0,0,-0.0221,-0.0218,-0.0182,-0.0178,-0.0177,-0.0192,-0.0189,-0.0171,-0.0152,-0.0173,-0.0172,-0.0171,-0.0126,-0.0128,-0.0124,-0.0098,-0.0102,-0.0101,-0.0099,-0.0099,-0.0037,-0.0037,0,0,0,0,0,0,-0.0217,-0.0219,-0.0182,-0.0182,-0.0197,-0.0191,-0.0188,-0.0176,-0.0153,-0.015,-0.0171,-0.017,-0.0131,-0.0126,-0.0122,-0.0117,-0.01,-0.0098,-0.0097,-0.0038,-0.0037,-0.0037,0,0,0,0,0,0,-0.0218,-0.0214,-0.0182,-0.02,-0.0197,-0.019,-0.0177,-0.0176,-0.0174,-0.0152,-0.0147,-0.0169,-0.0131,-0.0125,-0.0116,-0.0115,-0.0098,-0.0096,-0.0038,-0.0037,-0.0037,-0.0106,0,0,0,0,0,0,-0.022,-0.0214,-0.0212,-0.0199,-0.0196,-0.0183,-0.0177,-0.0176,-0.0173,-0.0172,-0.0149,-0.0144,-0.013,-0.0119,-0.0114,-0.0112,-0.0094,-0.0039,-0.0038,-0.0037,-0.0104,-0.0108,-0.0111,0,0,0,0,0,-0.0221,-0.022,-0.0212,-0.0208,-0.019,-0.0183,-0.0182,-0.0177,-0.0173,-0.0174,-0.0167,-0.0144,-0.0109,-0.0118,-0.0112,-0.0109,-0.0039,-0.0038,-0.0037,-0.0103,-0.0107,-0.0111,0,0,0,0,0,0,-0.0256,-0.0219,-0.0209,-0.0201,-0.0191,-0.0181,-0.0182,-0.0177,-0.0173,-0.017,-0.0152,-0.0146,-0.0135,-0.0109,-0.0119,-0.0084,-0.0064,-0.0062,-0.0116,-0.012,-0.0123,-0.0085,-0.0093,0,0,0,0,0,-0.0259,-0.0245,-0.0216,-0.0218,-0.0203,-0.0192,-0.019,-0.0184,-0.0175,-0.0173,-0.0167,-0.0145,-0.0126,-0.0115,-0.0096,-0.0084,-0.0028,-0.0071,-0.0074,-0.0077,-0.0039,0.005,0.0058,-0.0033,-0.0033,-0.0033,0,0,-0.0281,-0.0257,-0.0254,-0.0224,-0.0212,-0.0205,-0.019,-0.0183,-0.0188,-0.0166,-0.0179,-0.0161,-0.0126,-0.0118,-0.0107,-0.0096,-0.0033,-0.0076,-0.0079,-0.0038,0.0052,0.0061,0.0069,-0.0033,-0.0033,-0.0033,0,0,-0.031,-0.0283,-0.0274,-0.0257,-0.023,-0.0222,-0.0217,-0.0204,-0.0202,-0.021,-0.0191,-0.0166,-0.0159,-0.0124,-0.0106,-0.0107,-0.0056,-0.0108,-0.0093,-0.0009,-0.0,0.0008,0.0037,0.0049,-0.0107,-0.0107,-0.0107,0,-0.0333,-0.0315,-0.0278,-0.0261,-0.0249,-0.0228,-0.0219,-0.022,-0.0218,-0.0194,-0.0219,-0.0158,-0.0152,-0.0094,-0.011,-0.0112,-0.0072,-0.0092,-0.0013,-0.0003,0.0007,0.0036,0.005,-0.011,-0.011,-0.0109,-0.0109,0,-0.0351,-0.0335,-0.0328,-0.0296,-0.0281,-0.0273,-0.025,-0.0242,-0.0242,-0.0226,-0.018,-0.0169,-0.0111,-0.0125,-0.013,-0.0052,-0.0054,-0.0035,-0.0006,0.0012,0.004,0.0056,-0.0115,-0.0113,-0.0112,-0.0112,0,0,-0.0394,-0.0347,-0.0343,-0.0314,-0.029,-0.0266,-0.0268,-0.0229,-0.0182,-0.0197,-0.0127,-0.0131,-0.009,-0.0062,-0.005,0.0001,0.0054,0.0003,0.0009,0.0026,0.0206,0.0158,0.017,0.0085,0.0089,0.0092,0.0176,0,-0.0414,-0.0385,-0.0362,-0.0339,-0.031,-0.0276,-0.0261,-0.0221,-0.0191,-0.0125,-0.0084,-0.0024,-0.0076,-0.0034,0.0005,0.0075,0.0103,0.0028,0.0194,0.0199,0.0151,0.0191,0.0182,0.0255,0.0192,0.0195,0.0197,0,-0.0429,-0.0398,-0.0375,-0.0304,-0.0283,-0.0271,-0.0182,-0.0164,-0.0072,-0.0037,0.0034,0.0075,0.0155,0.0107,0.0224,0.0179,0.0186,0.0211,0.0216,0.0224,0.0184,0.024,0.0287,0.0245,0.0222,0.022,0.0218,0,-0.044,-0.0399,-0.0373,-0.0356,-0.0286,-0.0253,-0.0213,-0.0128,-0.0057,0.0044,0.0125,0.0205,0.0292,0.0325,0.0341,0.0303,0.0466,0.043,0.0383,0.0377,0.0435,0.0429,0.047,0.0507,0.0507,0.0507,0.0507,0,-0.045,-0.042,-0.0368,-0.0341,-0.0268,-0.023,-0.0125,-0.0076,0.0044,0.0181,0.0188,0.0319,0.0359,0.0441,0.0412,0.0456,0.0526,0.0413,0.042,0.0401,0.0391,0.0411,0.037,0.051,0.0509,0.0509,0.0508,0,-0.0444,-0.0431,-0.0371,-0.0296,-0.0266,-0.0202,-0.0063,0.0044,0.0113,0.0298,0.0342,0.0458,0.0564,0.056,0.0647,0.0575,0.0573,0.0578,0.0516,0.0514,0.0404,0.0359,0.0453,0.0432,0.0558,0.0557,0.0557,0,-0.0432,-0.0407,-0.0322,-0.0256,-0.0214,-0.0115,-0.0011,0.0076,0.0205,0.04,0.0518,0.064,0.0757,0.0811,0.0731,0.068,0.0609,0.0593,0.0516,0.0423,0.038,0.0355,0.0329,0.0544,0.0543,0.0543,0.0543,0,-0.0372,-0.035,-0.0289,-0.0167,-0.0063,0.0059,0.0202,0.0302,0.0451,0.0582,0.0787,0.0879,0.0921,0.0904,0.0785,0.0715,0.0554,0.0582,0.0547,0.0431,0.0357,0.0331,0.0415,0.054,0.054,0.054,0.0541,0.0541,-0.0303,-0.0246,-0.0156,-0.0035,0.0082,0.0245,0.0343,0.0504,0.0682,0.0889,0.0971,0.111,0.1036,0.0891,0.0782,0.0556,0.0557,0.0473,0.0441,0.0436,0.0382,0.0419,0.0507,0.0507,0.0507,0.0508,0.0508,0,-0.0157,-0.0103,-0.0004,0.0139,0.0279,0.0314,0.0512,0.0606,0.0801,0.1001,0.1142,0.1197,0.1074,0.0906,0.0617,0.0455,0.0393,0.0368,0.0353,0.0343,0.0447,0.0409,0.0408,0.0408,0.0408,0.0408,0.0408,0.0408,-0.0063,0.0059,0.0096,0.031,0.0396,0.0552,0.0648,0.0774,0.091,0.1109,0.1213,0.128,0.1194,0.0765,0.0465,0.0369,0.028,0.0243,0.0216,0.0284,0.0292,0.0299,0.0257,0.0223,0.0223,0.0135,0.0134,0.0133]}],[{"header":{"parameterUnit":"m.s-1","parameterCategory":2,"la1":30.2991,"la2":30.254,"lo1":-89.0895,"lo2":-89.0444,"dy":0.0017,"dx":0.0017,"nx":28,"ny":28,"refTime":"2024-08-06T21:00:00:Z","depth":"2","parameterNumber":2,"parameterNumberName":"U-component_of_CURRENTS"},"data":[0,0,0,0,0,0,0,0,0,0,0,0,0,0,0,0,0,0,0,0,0,0,0,0,0,0,0,0,0,0,0,0,0,0,0,0,0,0,0,0,0,0,0,0,0,0,0,0,0,0,0,0,0,0,0,0,0,0,0.2193,0.2194,0,0.23,0.2302,0.2303,0.2379,0.238,0.238,0.2381,0.2272,0.2269,0.2266,0,0,0,0,0,0,0,0,0,0,0,0,0,0.2219,0.2217,0.2193,0.2194,0.2195,0.23,0.2302,0.2303,0.2379,0.238,0.238,0.2381,0.2274,0.227,0.2266,0,0,0,0,0,0,0,0,0,0,0,0,0,0.2256,0.2217,0.2192,0.2245,0.2251,0.23,0.2302,0.2304,0.2379,0.238,0.238,0.2381,0.2275,0.227,0.2265,0.2218,0,0,0.225,0.2247,0,0,0,0,0,0,0,0,0.2253,0.2255,0.2236,0.2241,0.2248,0.2326,0.2272,0.2264,0.2379,0.2331,0.2381,0.2381,0.2269,0.2265,0.2288,0.2213,0.2208,0.2249,0.2246,0.2244,0.2242,0,0,0,0,0,0,0,0.225,0.2251,0.2236,0.2237,0.2245,0.232,0.2325,0.2273,0.2291,0.2335,0.2341,0.2351,0.2271,0.2293,0.2285,0.2207,0.2249,0.2245,0.2242,0.224,0.2262,0.2265,0,0,0,0,0,0,0.2225,0.2248,0.2233,0.2239,0.2252,0.2318,0.2324,0.2301,0.2297,0.2298,0.235,0.2354,0.2301,0.2291,0.2281,0.2352,0.2244,0.2239,0.2236,0.2258,0.2263,0.2267,0,0,0,0,0,0,0.2225,0.2221,0.2228,0.2248,0.2254,0.2316,0.2291,0.2303,0.2313,0.231,0.2308,0.2347,0.2301,0.2288,0.2258,0.2342,0.2237,0.2232,0.2254,0.226,0.2265,0.241,0,0,0,0,0,0,0.2224,0.222,0.2223,0.2245,0.2252,0.2225,0.229,0.2304,0.2319,0.2325,0.2306,0.2299,0.2301,0.2266,0.2253,0.2334,0.2228,0.2249,0.2256,0.2263,0.24,0.2419,0.2436,0,0,0,0,0,0.2225,0.2222,0.2221,0.2222,0.2242,0.2223,0.2232,0.2283,0.2317,0.23,0.2328,0.2299,0.2303,0.2262,0.2246,0.2328,0.2246,0.2254,0.2262,0.2392,0.2416,0.2435,0,0,0,0,0,0,0.2239,0.223,0.223,0.2224,0.2205,0.2235,0.2261,0.2267,0.228,0.2332,0.2296,0.2289,0.2315,0.2283,0.2239,0.2363,0.2288,0.2293,0.2392,0.2413,0.2431,0.2432,0.2224,0,0,0,0,0,0.2236,0.2233,0.2211,0.2206,0.2202,0.2221,0.2234,0.2273,0.2282,0.2293,0.2276,0.2305,0.2339,0.2338,0.2345,0.236,0.2329,0.2421,0.2439,0.2454,0.245,0.2508,0.253,0.2293,0.2293,0.2293,0,0,0.2226,0.2241,0.2226,0.221,0.2223,0.2237,0.2231,0.2269,0.2308,0.2273,0.2319,0.2338,0.2353,0.2421,0.2432,0.2399,0.2501,0.2464,0.2477,0.2464,0.2518,0.2541,0.2561,0.2299,0.2298,0.2297,0,0,0.2247,0.2223,0.2241,0.2226,0.2262,0.2277,0.2267,0.229,0.2324,0.2351,0.2393,0.2455,0.2438,0.2519,0.2548,0.2649,0.2586,0.2659,0.275,0.2808,0.2827,0.2844,0.2808,0.282,0.2677,0.2678,0.2678,0,0.2264,0.2243,0.2237,0.2265,0.2268,0.2279,0.2296,0.2335,0.2355,0.2421,0.2383,0.2484,0.2511,0.2622,0.2714,0.2693,0.2667,0.2667,0.283,0.2846,0.2861,0.2819,0.2831,0.2686,0.2685,0.2684,0.2683,0,0.228,0.2274,0.228,0.231,0.2328,0.2328,0.2373,0.2422,0.2466,0.2539,0.2623,0.2635,0.269,0.2753,0.2774,0.2915,0.2841,0.2838,0.2771,0.2893,0.2841,0.2851,0.2697,0.2694,0.2692,0.269,0,0,0.2228,0.2283,0.2256,0.2315,0.2342,0.2376,0.2458,0.2544,0.2634,0.268,0.2763,0.2883,0.2888,0.2918,0.2926,0.3016,0.3134,0.2988,0.2987,0.2939,0.3186,0.2987,0.2977,0.3154,0.3158,0.316,0.3097,0,0.2213,0.2283,0.2286,0.2348,0.2399,0.2441,0.2506,0.2645,0.271,0.2805,0.2896,0.2994,0.294,0.2994,0.3048,0.3125,0.3169,0.3146,0.3083,0.3079,0.2881,0.2987,0.2789,0.2704,0.3105,0.3107,0.3108,0,0.2209,0.2251,0.2323,0.2435,0.2448,0.2506,0.2643,0.2701,0.2879,0.2948,0.3022,0.3068,0.3192,0.3135,0.3197,0.3172,0.3186,0.3223,0.3221,0.2988,0.2901,0.2654,0.2705,0.3122,0.3121,0.312,0.3119,0,0.2251,0.228,0.2357,0.2374,0.2497,0.2575,0.2632,0.2797,0.2867,0.306,0.3137,0.3204,0.3219,0.327,0.3277,0.3276,0.332,0.3323,0.3121,0.3103,0.2896,0.2854,0.3382,0.3382,0.3382,0.3383,0.3383,0,0.2258,0.231,0.2396,0.2444,0.2496,0.2638,0.2731,0.2807,0.2961,0.3046,0.3186,0.3178,0.3267,0.3273,0.33,0.3178,0.3302,0.3134,0.3095,0.2935,0.2899,0.3235,0.3219,0.338,0.3381,0.3381,0.3381,0,0.2329,0.2367,0.2453,0.254,0.2545,0.2614,0.2708,0.2812,0.2962,0.3043,0.3133,0.3203,0.3202,0.3225,0.3287,0.3152,0.3158,0.3092,0.284,0.2773,0.2889,0.2882,0.2869,0.2862,0.2856,0.2851,0.2847,0,0.2374,0.2448,0.2474,0.2488,0.2515,0.26,0.2656,0.2781,0.287,0.2996,0.3034,0.3093,0.3018,0.296,0.2898,0.2854,0.2992,0.2585,0.2574,0.2883,0.2848,0.285,0.285,0.2349,0.2341,0.2334,0.2329,0,0.2423,0.2451,0.247,0.249,0.2524,0.2522,0.261,0.264,0.2787,0.2832,0.2811,0.279,0.2721,0.2525,0.2468,0.2434,0.2587,0.2442,0.2884,0.2493,0.2384,0.2351,0.2371,0.2271,0.2277,0.2281,0.2285,0.2287,0.2401,0.2382,0.2436,0.2415,0.2453,0.244,0.2378,0.2462,0.2446,0.2426,0.2494,0.2354,0.233,0.2105,0.203,0.1994,0.2177,0.2084,0.2109,0.214,0.2075,0.1961,0.1751,0.1754,0.1756,0.1758,0.176,0,0.2365,0.2354,0.2371,0.231,0.2315,0.2367,0.2343,0.2248,0.2093,0.2107,0.2026,0.1791,0.1649,0.1692,0.1531,0.1477,0.1538,0.1424,0.1515,0.1571,0.1622,0.1537,0.1067,0.1065,0.1063,0.1061,0,0,0.2332,0.2312,0.2274,0.2156,0.2156,0.2032,0.1945,0.1793,0.174,0.1541,0.1452,0.1537,0.1592,0.1302,0.1266,0.1136,0.1354,0.109,0.1648,0.1812,0.186,0.1999,0.193,0,0,0,0,0]},{"header":{"parameterUnit":"m.s-1","parameterCategory":2,"la1":30.2991,"la2":30.254,"lo1":-89.0895,"lo2":-89.0444,"dy":0.0017,"dx":0.0017,"nx":28,"ny":28,"refTime":"2024-08-06T21:00:00:Z","depth":"2","parameterNumber":3,"parameterNumberName":"V-component_of_CURRENTS"},"data":[0,0,0,0,0,0,0,0,0,0,0,0,0,0,0,0,0,0,0,0,0,0,0,0,0,0,0,0,0,0,0,0,0,0,0,0,0,0,0,0,0,0,0,0,0,0,0,0,0,0,0,0,0,0,0,0,0,0,0.016,0.016,0,0.014,0.014,0.0139,0.0109,0.0109,0.0109,0.0109,0.0118,0.0118,0.0119,0,0,0,0,0,0,0,0,0,0,0,0,0,0.0117,0.0118,0.016,0.016,0.016,0.014,0.014,0.0139,0.0109,0.0109,0.0109,0.0108,0.0118,0.0118,0.0119,0,0,0,0,0,0,0,0,0,0,0,0,0,0.0118,0.0119,0.0159,0.0145,0.0143,0.014,0.0139,0.0139,0.0109,0.0109,0.0109,0.0108,0.0117,0.0118,0.0119,0.013,0,0,0.0121,0.0121,0,0,0,0,0,0,0,0,0.0118,0.0119,0.0147,0.0146,0.0144,0.0129,0.0128,0.0139,0.0109,0.0119,0.0109,0.0108,0.0127,0.0126,0.0119,0.0131,0.0131,0.0121,0.0121,0.0122,0.0122,0,0,0,0,0,0,0,0.0118,0.0119,0.0149,0.0147,0.0146,0.0121,0.0121,0.0129,0.0123,0.0118,0.0117,0.012,0.0126,0.0118,0.0119,0.0131,0.0121,0.0122,0.0122,0.0122,0.0142,0.0142,0,0,0,0,0,0,0.013,0.012,0.0149,0.0148,0.0133,0.0122,0.0122,0.0132,0.0122,0.0121,0.012,0.0118,0.0117,0.0118,0.0119,0.0151,0.0122,0.0122,0.0123,0.0142,0.0142,0.0142,0,0,0,0,0,0,0.0129,0.0133,0.015,0.0135,0.0136,0.0124,0.0135,0.0132,0.0133,0.0124,0.0123,0.0126,0.0117,0.0118,0.0117,0.015,0.0123,0.0123,0.0142,0.0142,0.0142,0.0203,0,0,0,0,0,0,0.0128,0.0133,0.0132,0.0137,0.0138,0.0165,0.0136,0.0132,0.0136,0.0134,0.0129,0.0128,0.0117,0.0116,0.0118,0.0151,0.0124,0.0142,0.0142,0.0142,0.02,0.0205,0.0208,0,0,0,0,0,0.0127,0.0134,0.0133,0.0136,0.0142,0.0166,0.0165,0.0151,0.0137,0.0148,0.0125,0.0129,0.0119,0.0117,0.0119,0.0153,0.0141,0.0142,0.0142,0.0199,0.0204,0.0208,0,0,0,0,0,0,0.0112,0.0133,0.0131,0.0142,0.0161,0.0163,0.0168,0.0161,0.0151,0.014,0.0128,0.0127,0.0135,0.013,0.0128,0.0155,0.0133,0.0133,0.0175,0.018,0.0184,0.025,0.0124,0,0,0,0,0,0.0111,0.0119,0.0144,0.015,0.017,0.0171,0.0174,0.0167,0.0164,0.0159,0.0159,0.0147,0.0137,0.0147,0.0135,0.016,0.015,0.0181,0.0185,0.0188,0.0241,0.0211,0.0218,0.0143,0.0143,0.0143,0,0,0.012,0.0116,0.013,0.0147,0.016,0.0204,0.0172,0.0186,0.0217,0.0163,0.0197,0.0159,0.014,0.0152,0.0159,0.0158,0.02,0.0189,0.0192,0.0244,0.0213,0.022,0.0227,0.0143,0.0143,0.0143,0,0,0.0128,0.0134,0.0152,0.0183,0.0199,0.0211,0.0225,0.0242,0.0246,0.0265,0.0222,0.0209,0.0214,0.0206,0.0201,0.0227,0.021,0.0215,0.031,0.0279,0.0286,0.0292,0.0273,0.0277,0.0232,0.0232,0.0232,0,0.0125,0.0168,0.0161,0.0195,0.0239,0.0229,0.0289,0.0295,0.0301,0.0321,0.0288,0.0275,0.0251,0.0272,0.0277,0.0244,0.0222,0.0293,0.0287,0.0293,0.0298,0.0278,0.0281,0.0235,0.0234,0.0234,0.0234,0,0.0178,0.0214,0.0237,0.0287,0.0317,0.0372,0.0399,0.0422,0.0423,0.0429,0.0442,0.0386,0.039,0.0365,0.0338,0.0365,0.0333,0.0282,0.0282,0.031,0.0285,0.0288,0.0239,0.0238,0.0237,0.0236,0,0,0.021,0.0263,0.0289,0.0335,0.0387,0.043,0.0481,0.0548,0.0587,0.0575,0.0612,0.0592,0.0554,0.0547,0.0487,0.0472,0.0469,0.0412,0.0409,0.0409,0.041,0.0374,0.0373,0.0406,0.0407,0.0408,0.0372,0,0.0277,0.0358,0.0375,0.0493,0.0557,0.0583,0.0643,0.0679,0.0683,0.0705,0.0662,0.0642,0.0624,0.058,0.0586,0.0492,0.0483,0.0486,0.0373,0.0372,0.0347,0.0377,0.0387,0.0355,0.0375,0.0375,0.0375,0,0.0362,0.0406,0.0507,0.0613,0.0652,0.0703,0.0805,0.0849,0.0863,0.0848,0.084,0.0772,0.0768,0.0689,0.0654,0.0653,0.0566,0.049,0.0485,0.0449,0.0342,0.0332,0.0359,0.038,0.0379,0.0379,0.0379,0,0.0413,0.0528,0.0607,0.0652,0.0742,0.0793,0.0852,0.0891,0.0912,0.0895,0.0887,0.0874,0.0835,0.0764,0.0663,0.0639,0.0588,0.0515,0.041,0.0405,0.0398,0.0392,0.0474,0.0474,0.0474,0.0474,0.0474,0,0.0508,0.059,0.0635,0.0691,0.0809,0.0843,0.0926,0.0975,0.0966,0.1007,0.0953,0.095,0.0848,0.0801,0.0698,0.0604,0.0625,0.0463,0.0405,0.0415,0.0411,0.0422,0.0416,0.0473,0.0473,0.0473,0.0474,0,0.0564,0.0593,0.0683,0.078,0.0817,0.0896,0.096,0.0993,0.1008,0.1038,0.1014,0.0997,0.0963,0.0864,0.0727,0.0647,0.0523,0.0461,0.0493,0.0441,0.0349,0.0347,0.0354,0.0353,0.0352,0.0351,0.035,0,0.0613,0.0644,0.0732,0.0758,0.0801,0.089,0.0934,0.099,0.1013,0.1082,0.1099,0.1058,0.1048,0.0882,0.0713,0.054,0.051,0.0405,0.0363,0.0401,0.0343,0.0342,0.0342,0.0367,0.0366,0.0366,0.0365,0,0.0692,0.0681,0.0752,0.0774,0.0825,0.0911,0.0991,0.1015,0.1094,0.1125,0.118,0.1154,0.1047,0.0885,0.0658,0.0532,0.0442,0.0387,0.0423,0.0392,0.0408,0.0353,0.0352,0.0361,0.0361,0.0362,0.0362,0.0362,0.0742,0.0774,0.0781,0.0829,0.0871,0.0933,0.0986,0.1052,0.112,0.1184,0.1208,0.1185,0.1062,0.0752,0.0581,0.0394,0.04,0.0305,0.0308,0.0312,0.0317,0.0329,0.0269,0.0269,0.0269,0.0269,0.0269,0,0.0767,0.0778,0.0817,0.0868,0.0881,0.0909,0.1013,0.1037,0.1115,0.1182,0.1199,0.1046,0.0892,0.0741,0.0467,0.0297,0.0288,0.0233,0.0271,0.0276,0.0281,0.0286,0.0229,0.0228,0.0228,0.0227,0,0,0.0774,0.0794,0.081,0.0858,0.0868,0.0903,0.0953,0.1011,0.1065,0.1083,0.1071,0.1076,0.0926,0.0717,0.0529,0.0375,0.0348,0.0331,0.038,0.0452,0.0458,0.0341,0.0357,0,0,0,0,0]}],[{"header":{"parameterUnit":"m.s-1","parameterCategory":2,"la1":30.2991,"la2":30.254,"lo1":-89.0895,"lo2":-89.0444,"dy":0.0017,"dx":0.0017,"nx":28,"ny":28,"refTime":"2024-08-06T21:00:00:Z","depth":"4","parameterNumber":2,"parameterNumberName":"U-component_of_CURRENTS"},"data":[0,0,0,0,0,0,0,0,0,0,0,0,0,0,0,0,0,0,0,0,0,0,0,0,0,0,0,0,0,0,0,0,0,0,0,0,0,0,0,0,0,0,0,0,0,0,0,0,0,0,0,0,0,0,0,0,0,0,0.0865,0.0865,0,0.0841,0.084,0.0839,0.0838,0.0839,0.084,0.0841,0.0922,0.0923,0.0924,0,0,0,0,0,0,0,0,0,0,0,0,0,0.0851,0.0851,0.0865,0.0865,0.0865,0.0841,0.084,0.0839,0.0838,0.0839,0.084,0.0841,0.0921,0.0923,0.0924,0,0,0,0,0,0,0,0,0,0,0,0,0,0.0839,0.0851,0.0865,0.0866,0.0867,0.0841,0.084,0.0839,0.0838,0.0839,0.084,0.0841,0.0921,0.0923,0.0925,0.0912,0,0,0.0931,0.0932,0,0,0,0,0,0,0,0,0.084,0.0839,0.0866,0.0866,0.0867,0.0849,0.0865,0.0871,0.0837,0.0842,0.0841,0.0842,0.091,0.0913,0.0895,0.0916,0.0919,0.0931,0.0932,0.0933,0.0934,0,0,0,0,0,0,0,0.0841,0.084,0.0849,0.0866,0.0867,0.0849,0.0848,0.0865,0.0867,0.0842,0.0843,0.085,0.0911,0.0893,0.0898,0.092,0.0931,0.0933,0.0934,0.0935,0.1079,0.1082,0,0,0,0,0,0,0.0858,0.0841,0.085,0.0849,0.0863,0.0849,0.0848,0.0848,0.0864,0.0869,0.0849,0.085,0.0889,0.0895,0.0901,0.0944,0.0933,0.0935,0.0936,0.1077,0.108,0.1083,0,0,0,0,0,0,0.0858,0.0859,0.0851,0.085,0.0848,0.0849,0.0849,0.0848,0.0859,0.087,0.0875,0.0866,0.089,0.0898,0.0952,0.0946,0.0936,0.0938,0.1074,0.1078,0.1081,0.0995,0,0,0,0,0,0,0.0857,0.0858,0.0872,0.0851,0.0849,0.084,0.0848,0.0846,0.0862,0.0864,0.0886,0.0892,0.0892,0.0949,0.0954,0.0948,0.094,0.107,0.1075,0.108,0.0994,0.0995,0.0996,0,0,0,0,0,0.0856,0.085,0.0873,0.0875,0.0866,0.084,0.0836,0.0837,0.0863,0.0855,0.0896,0.0893,0.0985,0.0952,0.0958,0.0952,0.1068,0.1074,0.108,0.0994,0.0995,0.0996,0,0,0,0,0,0,0.0833,0.085,0.0874,0.0871,0.0869,0.0843,0.0843,0.0853,0.0873,0.0893,0.0913,0.0922,0.0973,0.0995,0.0959,0.1021,0.1031,0.1038,0.0965,0.0966,0.0967,0.1017,0.0941,0,0,0,0,0,0.0844,0.0853,0.086,0.0857,0.0865,0.0866,0.0865,0.0865,0.0878,0.0887,0.091,0.0956,0.0995,0.1007,0.1046,0.1064,0.112,0.1078,0.1078,0.1078,0.1131,0.1219,0.1231,0.1102,0.1102,0.1102,0,0,0.083,0.0845,0.0848,0.0856,0.0859,0.0845,0.0866,0.0863,0.0853,0.0896,0.0911,0.0963,0.1011,0.1034,0.1059,0.1049,0.1135,0.1085,0.1083,0.1139,0.1226,0.1238,0.1249,0.1106,0.1105,0.1104,0,0,0.0802,0.083,0.0834,0.0831,0.085,0.0842,0.0853,0.0853,0.0862,0.0877,0.0929,0.0998,0.1018,0.1062,0.1084,0.1127,0.1149,0.1132,0.1149,0.1229,0.124,0.125,0.1277,0.1291,0.1114,0.1113,0.1113,0,0.0796,0.0798,0.0825,0.0823,0.0824,0.0846,0.0838,0.0831,0.0848,0.0895,0.088,0.102,0.1033,0.1119,0.1122,0.1123,0.1166,0.1115,0.1225,0.1237,0.125,0.1276,0.1291,0.111,0.111,0.1111,0.1111,0,0.0761,0.0772,0.0767,0.0781,0.0781,0.0769,0.0779,0.079,0.0815,0.0852,0.096,0.1002,0.111,0.1096,0.1104,0.1211,0.121,0.1218,0.1205,0.1256,0.1281,0.1299,0.1105,0.1106,0.1107,0.1108,0,0,0.0723,0.0746,0.0744,0.0765,0.0763,0.0762,0.0753,0.0792,0.0838,0.0881,0.0974,0.1035,0.1138,0.118,0.1219,0.1264,0.1328,0.127,0.1276,0.1266,0.148,0.1303,0.1305,0.1347,0.1352,0.1355,0.1438,0,0.0695,0.0693,0.0706,0.07,0.0707,0.0726,0.0728,0.0775,0.0816,0.0905,0.1019,0.1124,0.1143,0.1205,0.1269,0.1339,0.1385,0.1304,0.1464,0.1469,0.128,0.1325,0.1369,0.1452,0.1456,0.1459,0.1461,0,0.0648,0.0669,0.0668,0.0708,0.0718,0.0721,0.0774,0.0789,0.0913,0.0947,0.1099,0.1209,0.1351,0.1331,0.1504,0.1453,0.1489,0.1509,0.1513,0.1411,0.1329,0.1414,0.1495,0.1492,0.149,0.1488,0.1486,0,0.0606,0.0634,0.0647,0.0649,0.0693,0.0723,0.0763,0.0846,0.0898,0.1032,0.1098,0.1289,0.1415,0.1502,0.1562,0.1555,0.17,0.1692,0.1571,0.1557,0.1725,0.1715,0.1825,0.1824,0.1824,0.1824,0.1824,0,0.0544,0.0553,0.065,0.0646,0.072,0.0754,0.0828,0.0869,0.0976,0.1076,0.1187,0.1283,0.1473,0.1578,0.1601,0.1627,0.1745,0.1606,0.1586,0.1679,0.1663,0.1733,0.1722,0.1827,0.1826,0.1826,0.1825,0,0.0465,0.0508,0.0552,0.0645,0.0698,0.0764,0.0877,0.0928,0.1003,0.1128,0.1188,0.1356,0.1469,0.1571,0.1703,0.1674,0.1689,0.1662,0.1722,0.1699,0.1487,0.1471,0.1578,0.1572,0.1568,0.1565,0.1561,0,0.0412,0.043,0.0571,0.0644,0.0699,0.0803,0.0871,0.0947,0.1002,0.1146,0.122,0.1384,0.1473,0.1522,0.1604,0.1621,0.1605,0.1598,0.1592,0.1503,0.1473,0.1463,0.1453,0.1555,0.1553,0.1552,0.1551,0,0.0343,0.0411,0.0459,0.0628,0.0732,0.082,0.0931,0.0957,0.1048,0.113,0.1223,0.1283,0.1402,0.1479,0.1485,0.1492,0.1592,0.1553,0.1563,0.1559,0.1476,0.1448,0.1443,0.1536,0.1538,0.154,0.1541,0,0.0322,0.0354,0.0463,0.0612,0.0737,0.0825,0.0868,0.0944,0.1005,0.1148,0.1179,0.1285,0.1417,0.141,0.1402,0.1394,0.1405,0.1371,0.1392,0.1409,0.1307,0.1173,0.1149,0,0,0,0,0,0.0313,0.035,0.0456,0.0596,0.0711,0.0801,0.091,0.0937,0.1025,0.107,0.1115,0.1187,0.1219,0.1273,0.1238,0.1321,0.1397,0.127,0.1366,0.1453,0.147,0.1359,0,0,0,0,0,0,0.0316,0.0379,0.0429,0.0564,0.0656,0.0768,0.0832,0.089,0.0913,0.1009,0.1045,0.1109,0.1169,0.1238,0.1219,0.1227,0.1259,0.1326,0.1322,0.1443,0.1459,0.1473,0.1365,0,0,0,0,0]},{"header":{"parameterUnit":"m.s-1","parameterCategory":2,"la1":30.2991,"la2":30.254,"lo1":-89.0895,"lo2":-89.0444,"dy":0.0017,"dx":0.0017,"nx":28,"ny":28,"refTime":"2024-08-06T21:00:00:Z","depth":"4","parameterNumber":3,"parameterNumberName":"V-component_of_CURRENTS"},"data":[0,0,0,0,0,0,0,0,0,0,0,0,0,0,0,0,0,0,0,0,0,0,0,0,0,0,0,0,0,0,0,0,0,0,0,0,0,0,0,0,0,0,0,0,0,0,0,0,0,0,0,0,0,0,0,0,0,0,0.0232,0.0232,0,0.0233,0.0233,0.0233,0.0239,0.024,0.024,0.024,0.0222,0.0221,0.0221,0,0,0,0,0,0,0,0,0,0,0,0,0,0.0193,0.0194,0.0232,0.0232,0.0232,0.0233,0.0233,0.0233,0.0239,0.024,0.024,0.024,0.0222,0.0221,0.0221,0,0,0,0,0,0,0,0,0,0,0,0,0,0.0204,0.0195,0.0232,0.0235,0.0236,0.0233,0.0233,0.0233,0.0239,0.024,0.024,0.024,0.0222,0.0221,0.022,0.021,0,0,0.0218,0.0217,0,0,0,0,0,0,0,0,0.0203,0.0205,0.0235,0.0235,0.0235,0.0237,0.0213,0.0225,0.0239,0.0238,0.024,0.024,0.0225,0.0224,0.0223,0.0209,0.0208,0.0217,0.0217,0.0216,0.0216,0,0,0,0,0,0,0,0.0203,0.0205,0.0232,0.0235,0.0235,0.0223,0.0225,0.0215,0.0229,0.0238,0.0238,0.0239,0.0225,0.0224,0.0223,0.0208,0.0217,0.0217,0.0216,0.0216,0.02,0.02,0,0,0,0,0,0,0.0205,0.0205,0.0232,0.0232,0.022,0.0224,0.0226,0.0236,0.023,0.0229,0.0239,0.0239,0.0226,0.0224,0.0222,0.0241,0.0216,0.0216,0.0215,0.02,0.02,0.02,0,0,0,0,0,0,0.0204,0.0208,0.0232,0.0218,0.022,0.0224,0.0235,0.0236,0.0243,0.0231,0.023,0.0247,0.0226,0.0224,0.0212,0.0239,0.0215,0.0214,0.0199,0.02,0.02,0.0257,0,0,0,0,0,0,0.0203,0.0208,0.0213,0.0219,0.0221,0.0242,0.0235,0.0236,0.0243,0.0244,0.0237,0.0235,0.0226,0.0214,0.0211,0.0237,0.0214,0.0199,0.0199,0.02,0.0255,0.026,0.0263,0,0,0,0,0,0.0202,0.022,0.0214,0.0217,0.023,0.0243,0.0243,0.0246,0.0243,0.0252,0.0237,0.0236,0.0214,0.0213,0.021,0.0236,0.0199,0.0199,0.02,0.0254,0.0259,0.0263,0,0,0,0,0,0,0.0211,0.0222,0.0216,0.0236,0.024,0.0244,0.0254,0.0251,0.0246,0.0247,0.0231,0.0228,0.0229,0.0217,0.0216,0.023,0.0209,0.0209,0.0251,0.0256,0.026,0.0287,0.0213,0,0,0,0,0,0.0213,0.0224,0.0231,0.0244,0.0251,0.025,0.0255,0.0257,0.0255,0.0254,0.0248,0.0237,0.0227,0.0229,0.0217,0.0222,0.0191,0.0238,0.0242,0.0245,0.0264,0.0201,0.0201,0.0201,0.0201,0.0201,0,0,0.022,0.0224,0.0232,0.0245,0.025,0.0266,0.0255,0.0271,0.0284,0.0251,0.0267,0.0248,0.0228,0.0235,0.0236,0.0231,0.0231,0.0246,0.0249,0.0266,0.0202,0.0202,0.0202,0.0201,0.0201,0.0201,0,0,0.0242,0.0247,0.0265,0.027,0.0279,0.0282,0.0288,0.0299,0.0307,0.0311,0.029,0.0284,0.0276,0.0269,0.0263,0.0279,0.0247,0.0279,0.0331,0.027,0.027,0.0269,0.0238,0.0234,0.0288,0.0289,0.0289,0,0.0247,0.0275,0.0271,0.0288,0.0302,0.0292,0.0321,0.0323,0.0325,0.0338,0.0326,0.0313,0.0296,0.0302,0.0313,0.0292,0.0256,0.0317,0.0275,0.0274,0.0272,0.0241,0.0236,0.0291,0.0291,0.0291,0.029,0,0.0282,0.0303,0.0318,0.0334,0.0346,0.0371,0.0376,0.0383,0.0388,0.0397,0.0408,0.0376,0.0375,0.0367,0.035,0.0342,0.032,0.0281,0.0266,0.0276,0.0242,0.0236,0.0295,0.0294,0.0294,0.0293,0,0,0.0305,0.0337,0.0346,0.0363,0.0379,0.0395,0.0414,0.0443,0.0458,0.0462,0.0487,0.0475,0.0468,0.0459,0.0431,0.0389,0.0349,0.0343,0.0338,0.0319,0.023,0.0236,0.0229,0.0291,0.029,0.029,0.0215,0,0.0339,0.0389,0.0394,0.044,0.0471,0.0465,0.0486,0.0503,0.0507,0.0523,0.0513,0.0522,0.05,0.0497,0.0457,0.0365,0.0333,0.0374,0.0219,0.0215,0.0223,0.0222,0.0286,0.021,0.0209,0.0208,0.0207,0,0.0378,0.0407,0.047,0.0504,0.0519,0.0541,0.0571,0.0593,0.0605,0.0597,0.0605,0.0595,0.0572,0.053,0.0411,0.0434,0.0354,0.0281,0.0275,0.026,0.0209,0.0194,0.0195,0.0196,0.0197,0.0198,0.0198,0,0.0412,0.0461,0.0518,0.0531,0.0565,0.0592,0.0619,0.0635,0.0655,0.0658,0.066,0.0629,0.0612,0.0503,0.0389,0.0389,0.0233,0.0204,0.0144,0.0143,0.0135,0.0136,0.0121,0.0121,0.0121,0.0121,0.0121,0,0.045,0.0491,0.0542,0.057,0.0632,0.0648,0.0701,0.0702,0.0715,0.0737,0.0723,0.0706,0.0599,0.0514,0.0395,0.0257,0.0236,0.0164,0.0122,0.0162,0.0168,0.0131,0.0133,0.0118,0.0119,0.0119,0.012,0,0.0477,0.0513,0.0571,0.0627,0.0653,0.0704,0.0757,0.0777,0.0784,0.0801,0.081,0.0762,0.065,0.0537,0.035,0.0274,0.0126,0.0081,0.0158,0.012,0.0083,0.0089,0.0019,0.0019,0.0018,0.0018,0.0018,0,0.0493,0.0531,0.0617,0.0655,0.0687,0.0756,0.0793,0.0813,0.0824,0.082,0.0823,0.0762,0.071,0.047,0.0335,0.0134,0.0104,0.0045,0.0061,0.0105,0.0071,0.0078,0.0084,0.0017,0.0017,0.0017,0.0017,0,0.0508,0.0546,0.0594,0.0691,0.0745,0.0788,0.0844,0.0849,0.086,0.0874,0.082,0.0738,0.0625,0.0465,0.0323,0.0168,0.0088,0.004,0.0041,0.0055,0.0101,0.007,0.0076,0.0016,0.0016,0.0016,0.0016,0,0.0512,0.0547,0.0624,0.0703,0.0765,0.0793,0.0825,0.0832,0.0847,0.0842,0.0815,0.071,0.0659,0.0481,0.0327,0.0203,0.0177,0.0135,0.0129,0.0129,0.0186,0.0262,0.0197,0,0,0,0,0,0.051,0.0551,0.0624,0.0691,0.075,0.0785,0.0837,0.0853,0.0869,0.0833,0.0825,0.0716,0.0537,0.0465,0.034,0.0315,0.0149,0.0165,0.0095,0.0008,0.001,0.0058,0,0,0,0,0,0,0.0506,0.0573,0.0615,0.0664,0.0697,0.0748,0.0774,0.0789,0.0771,0.0781,0.0689,0.0676,0.0501,0.0596,0.033,0.0297,0.0235,0.0094,0.0092,0.0007,0.0009,0.001,0.006,0,0,0,0,0]}]]